Regional Weather Roundup
Issued by NWS

Home | Current Version | Previous Version | Text Only | Print | Product List | Glossary On
Versions: 1 2 3 4 5 6 7 8 9 10 11 12 13 14 15 16 17 18 19 20 21 22 23 24 25 26 27 28 29 30 31 32 33 34 35 36 37 38 39 40 41 42 43 44 45 46 47 48 49 50
000
ASUS44 KJAN 011010
RWRMS

MISSISSIPPI HOURLY WEATHER ROUNDUP
NATIONAL WEATHER SERVICE JACKSON MS
500 AM CDT SAT AUG 01 2015

NOTE: "FAIR: INDICATES FEW OR NO CLOUDS BELOW 12,000 FEET WITH NO
SIGNIFICANT WEATHER AND/OR OBSTRUCTIONS TO VISIBILITY.

MSZ001>002-007>008-010>013-018>021-025>028-034>036-011100-
NORTHWEST MISSISSIPPI

CITY           SKY/WX    TMP DP  RH WIND       PRES   REMARKS
CLARKSDALE     FAIR      68  68 100 N5        30.01R
CLEVELAND      FAIR      69  69  99 CALM      30.00R
GREENWOOD      CLEAR     67  64  90 CALM      30.00R
GREENVILLE     CLEAR     68  66  93 CALM      30.00R
OLIVE BRANCH     N/A     72  70  94 CALM      30.01S
OXFORD         FAIR      64  63  94 CALM      30.02S
TUNICA         SUNNY     70  68  94 CALM      30.01R
$$

MSZ003>006-009-014>017-022>024-029>033-037>039-011100-
NORTHEAST MISSISSIPPI

CITY           SKY/WX    TMP DP  RH WIND       PRES   REMARKS
COLUMBUS AFB   CLEAR     67  65  91 NW3       29.98R
CORINTH          N/A     66  64  94 CALM      29.99S
GOLDN TRIANGLE CLEAR     66  61  82 N5        29.98R
STARKVILLE     FAIR      66  63  88 CALM      29.99S
TUPELO         CLEAR     68  64  87 NE3       30.00R
$$

MSZ040-058-011100-
CENTRAL MISSISSIPPI

CITY           SKY/WX    TMP DP  RH WIND       PRES   REMARKS
JACKSON INTL   CLEAR     74  64  71 N10       29.97S
JACKSON HAWKNS CLEAR     74  64  71 N6        29.98S
MERIDIAN KEY   CLEAR     68  62  81 N6        29.96S
MERIDIAN NAS   CLEAR     70  63  78 CALM      29.97R
VICKSBURG      CLEAR     74  68  81 N8        29.97S
$$

MSZ059>079-011100-
SOUTH MISSISSIPPI

CITY           SKY/WX    TMP DP  RH WIND       PRES   REMARKS
BROOKHAVEN     FAIR      70  64  83 N3        29.98S
HATTIESBURG    CLEAR     70  65  84 NW3       29.93S
MCCOMB         CLEAR     73  64  73 N6        29.95S
NATCHEZ        CLEAR     68  64  88 CALM      29.98R
PINE BELT      CLEAR     70  63  78 N7        29.94F
$$

MSZ080>082-011100-
COASTAL MISSISSIPPI

CITY           SKY/WX    TMP DP  RH WIND       PRES   REMARKS
BILOXI         CLEAR     75  65  70 N7        29.87F
PASCAGOULA     CLEAR     71  66  84 NW5       29.87F
GULFPORT       CLEAR     74  63  68 N6        29.87F
$$


USA.gov is the U.S. government's official web portal to all federal, state and local government web resources and services.